Location: Oakhurst
(33.6448°N, 111.9543°W)
Time: 01:17:28
(UTC+00:00)

ISS - Visible Passes

Search period start: 07 May 2021 00:00
Search period end: 17 May 2021 00:00
Orbit: 418 x 421 km, 51.6° (Epoch: 06 May)

Date Brightness Start Highest point End Pass type
(mag) Time Alt. Az. Time Alt. Az. Time Alt. Az.
10 May -0.5 11:49:20 10° N 11:50:58 13° NNE 11:52:36 10° ENE visible
12 May -1.6 11:50:11 10° NNW 11:53:13 30° NE 11:56:15 10° ESE visible
13 May -0.8 11:03:08 10° NNW 11:05:39 19° NNE 11:08:10 10° E visible
14 May -3.6 03:43:00 10° SSW 03:46:13 46° SE 03:46:51 39° E visible
14 May -0.4 10:16:22 10° N 10:18:01 13° NNE 10:19:41 10° ENE visible
14 May -3.8 11:51:49 10° NW 11:55:11 76° SW 11:58:33 10° SE visible
15 May -2.6 02:56:09 10° S 02:58:54 24° SE 03:01:39 10° ENE visible
15 May -1.5 04:32:43 10° W 04:35:37 26° NW 04:38:31 10° NNE visible
15 May -3.0 11:04:26 10° NW 11:07:45 55° NE 11:11:04 10° ESE visible
16 May -2.6 03:44:52 10° WSW 03:48:06 45° NW 03:51:21 10° NE visible
16 May -1.8 10:17:12 10° NNW 10:20:15 30° NE 10:23:17 10° ESE visible
16 May -2.4 11:54:21 10° W 11:56:54 20° SW 11:59:26 10° S visible
